Wind_Speed
2 11 14 11 4 1 5 9 12 10 13 15 15 16 16 14 1 8 25 22 23 21 21 20 17 16 16 14 14 13 12 11 12 10 9 8 6 5 6 5 5 3 2 4 6 5 5 5 4
3 11 11 9 4 4 3 11 9 4 16 12 15 22 19 17 16 26 25 22 28 19 18 18 16 15 15 14 13 12 11 10 10 8 7 6 4 5 6 5 4 3 4 6 6 6 4 4 5
4 6 9 3 3 4 3 10 5 3 10 5 7 18 9 9 23 20 23 22 19 19 15 14 15 15 14 14 13 11 10 8 7 6 5 3 3 4 5 5 6 6 5 5 5 4 4 5 6
7 8 7 2 8 7 5 5 24 8 7 6 17 13 16 14 13 16 25 22 22 20 15 11 14 13 13 12 12 9 8 6 5 5 5 4 3 4 5 6 6 4 4 5 5 6 5 5 7
11 2 3 5 6 4 4 15 6 6 6 13 15 6 15 11 19 22 23 21 22 19 14 13 13 13 12 11 10 8 6 6 5 5 6 5 4 5 5 5 5 5 6 5 7 6 5 4 7
10 6 1 4 4 4 1 4 9 1 5 5 12 19 12 16 19 22 22 21 22 13 12 14 12 11 11 10 9 7 5 5 6 7 7 6 6 6 6 6 5 5 5 5 6 4 4 3 4
9 8 8 7 9 4 7 10 7 10 17 14 9 12 13 20 19 21 23 21 13 23 15 10 13 12 11 9 8 7 6 5 7 7 6 4 4 4 5 5 4 5 3 4 4 4 3 2 4
5 4 9 11 6 4 2 2 4 12 4 16 4 7 16 23 22 20 20 18 22 27 15 10 8 10 10 10 8 7 7 7 8 7 4 4 4 3 4 3 5 2 3 3 2 3 3 3 2
10 3 2 11 8 6 5 3 4 10 20 20 3 14 22 25 23 22 21 19 18 14 14 14 6 11 13 7 4 6 7 8 9 4 5 5 8 8 6 4 1 2 2 1 1 3 5 4 3
10 1 6 4 7 1 5 3 11 10 19 7 11 20 18 19 24 27 24 23 16 11 15 8 11 11 7 5 5 5 7 8 9 7 11 6 5 4 7 7 3 2 2 4 3 2 5 3 10
4 6 3 9 9 8 3 0 14 10 6 8 5 13 15 18 18 17 15 15 13 14 12 14 6 14 9 11 6 6 8 5 7 8 11 3 3 5 7 6 2 2 4 8 7 5 1 2 9
16 2 6 6 6 6 4 5 3 11 5 2 19 21 16 18 16 14 16 12 17 18 15 15 15 13 12 8 4 8 8 10 4 7 9 9 8 5 7 7 4 1 6 7 7 5 4 1 5
6 13 4 5 2 5 10 11 8 9 19 11 13 15 18 20 16 16 16 15 19 16 14 17 16 12 12 11 9 12 10 7 7 8 11 7 4 6 4 2 1 1 5 6 9 7 5 1 4
7 12 15 4 3 4 6 3 3 12 13 21 8 15 18 22 20 18 13 20 18 16 15 15 14 16 14 13 12 14 12 9 9 3 5 9 6 5 7 4 7 5 2 5 6 9 6 3 4
9 11 9 7 6 3 6 7 7 11 18 11 15 14 16 24 20 20 20 20 19 14 18 16 13 12 13 13 13 17 13 13 17 9 10 11 6 2 3 3 5 5 6 5 4 7 8 5 5
12 14 3 14 8 6 6 8 6 16 16 6 14 15 14 20 24 20 20 17 20 14 17 16 16 12 10 13 14 18 11 16 11 10 8 3 11 7 2 10 7 2 2 3 8 11 6 6 3
10 3 14 8 3 6 10 5 12 12 15 17 16 18 17 13 13 18 19 17 19 16 19 14 18 15 11 11 10 18 13 19 10 10 11 7 2 5 3 8 3 3 3 5 8 8 7 5 3
3 9 13 3 4 9 10 9 16 16 22 18 18 18 22 19 16 18 18 17 15 18 21 17 17 13 13 12 16 10 17 14 10 8 8 8 5 8 6 9 5 4 6 5 5 6 4 5 6
9 11 13 2 6 12 11 14 16 23 22 21 24 21 22 22 21 20 18 19 19 19 20 20 19 18 17 13 18 14 12 12 10 9 10 12 9 5 8 7 4 3 4 5 9 5 6 1 1
12 16 3 5 5 8 11 12 18 19 23 28 26 21 20 22 25 20 17 24 25 23 21 22 21 23 20 13 15 18 16 10 9 13 10 10 6 4 8 5 3 6 7 5 9 5 4 7 4
16 18 5 2 15 12 16 8 17 20 19 20 28 23 20 24 24 23 20 20 23 23 23 22 22 23 20 17 16 16 15 16 15 15 7 7 8 7 6 8 9 11 5 8 9 4 6 10 7
15 6 8 12 6 5 8 3 5 7 16 24 22 28 26 27 27 24 26 20 20 17 18 20 22 22 21 21 21 19 19 16 14 18 12 7 12 8 11 9 11 7 9 8 5 6 8 11 9
11 9 11 12 14 8 11 4 4 11 2 13 22 26 24 29 29 27 22 23 23 20 17 19 20 18 22 25 21 21 20 15 12 12 12 14 15 10 14 13 10 10 9 10 8 9 6 11 6
9 13 13 15 10 9 17 10 10 14 17 21 41 36 29 24 27 29 24 22 22 19 18 18 20 17 19 25 23 21 18 17 15 15 15 14 15 7 11 12 10 15 14 11 10 8 6 7 8
13 14 3 5 5 4 20 12 8 11 19 4 5 14 26 24 27 27 25 28 23 21 18 19 20 19 20 25 27 22 21 20 13 16 15 10 11 11 10 10 12 12 14 10 10 12 7 6 8
15 14 5 15 8 10 18 3 7 4 9 8 5 7 13 22 18 29 25 24 25 22 19 18 20 20 19 24 23 26 21 18 18 11 14 11 9 8 12 13 10 9 12 10 10 10 9 5 6
15 14 18 13 18 10 9 14 9 3 8 11 10 12 13 18 21 17 27 24 20 21 20 19 21 19 17 20 25 24 25 23 22 18 14 17 10 9 9 10 16 11 12 10 11 14 11 6 11
15 14 12 9 9 12 2 8 3 13 12 8 10 13 16 17 19 19 23 22 21 22 20 19 19 18 17 18 18 22 22 22 22 21 19 15 17 12 15 10 9 10 15 14 15 15 12 11 11
11 13 11 13 11 11 3 4 11 13 23 9 11 16 16 17 18 20 22 19 20 22 21 20 19 16 19 19 20 17 18 17 19 25 25 24 20 21 19 20 19 16 16 15 18 16 14 14 13
16 17 12 7 10 9 8 9 21 27 35 17 15 17 18 18 19 17 20 19 19 20 22 21 22 19 16 20 23 22 22 20 21 20 24 23 22 20 23 23 21 18 19 18 18 17 16 14 17
Wind_Direction
44 20 344 282 263 25 307 5 146 61 360 72 53 81 105 117 248 103 139 137 143 139 139 134 136 135 134 131 129 131 130 130 135 138 127 114 115 114 108 115 112 102 103 120 132 142 157 172 167
318 309 284 285 281 330 68 332 22 166 199 112 69 77 82 73 103 129 138 130 145 135 135 140 138 140 138 134 132 134 132 131 132 143 135 124 115 107 103 110 111 112 105 99 110 121 133 146 153
22 313 267 225 245 333 122 241 256 192 107 83 100 82 73 102 123 137 149 136 134 134 156 141 140 135 133 132 129 133 133 134 139 149 151 123 106 103 104 106 110 113 112 100 98 107 118 134 131
321 271 263 262 6 39 141 256 249 100 81 43 94 81 82 94 128 136 143 146 141 145 164 155 152 140 139 129 130 132 135 139 146 153 135 125 121 110 106 108 104 107 104 108 96 80 87 112 112
275 288 282 277 50 133 147 196 246 102 244 102 94 125 87 100 125 136 143 138 142 146 172 176 158 142 145 138 136 139 144 129 126 141 138 118 122 119 109 97 96 102 107 104 94 90 93 110 113
251 239 314 272 35 111 198 259 79 359 278 73 100 113 100 126 129 145 147 145 160 162 170 172 163 147 147 145 146 151 153 146 140 125 121 108 103 99 105 106 106 110 109 92 91 88 80 83 96
286 306 1 84 265 101 271 326 33 58 14 1 110 98 128 128 140 148 144 157 151 150 171 179 168 156 158 160 153 158 166 155 142 133 115 80 92 96 95 94 111 112 110 109 81 85 67 62 84
277 350 8 310 18 23 309 226 52 97 53 280 269 154 154 143 150 153 148 138 133 151 140 169 178 168 176 168 154 171 179 172 157 133 117 82 83 74 78 102 100 132 157 144 79 37 23 3 6
280 93 29 296 25 357 309 359 269 135 154 235 286 163 146 145 154 161 167 161 151 140 154 159 208 161 164 181 197 198 179 184 180 186 129 113 96 31 10 63 249 252 211 45 47 348 340 336 312
331 82 188 259 354 164 272 128 255 188 212 204 120 108 133 157 161 164 164 159 159 156 155 188 147 178 176 194 240 202 184 187 182 151 135 81 96 153 206 320 299 279 322 356 349 20 358 351 284
341 328 343 323 34 303 206 19 215 248 78 36 1 126 141 160 169 160 153 179 180 183 168 176 158 177 198 214 222 180 152 198 181 168 143 36 185 214 235 287 61 58 328 332 328 329 13 343 241
275 182 288 32 359 292 107 148 302 63 75 121 222 256 156 174 156 172 180 165 174 173 182 191 199 186 189 212 199 164 145 175 195 182 150 158 162 210 253 214 19 279 329 340 326 332 346 198 258
47 316 331 67 170 261 162 196 130 147 185 183 244 179 173 159 161 180 187 190 166 164 170 179 196 202 220 230 185 167 165 155 193 152 144 151 240 232 229 272 223 156 317 335 329 340 341 309 97
1 302 281 144 114 241 245 85 185 165 177 226 163 179 169 175 171 175 184 178 178 187 194 207 209 220 226 199 183 167 162 186 198 181 167 192 201 198 194 193 200 210 10 339 329 305 335 4 133
281 272 276 116 237 182 205 162 225 142 256 177 182 182 170 170 178 178 175 181 196 186 193 192 197 222 203 190 175 167 170 185 169 187 213 223 207 211 262 277 267 186 193 320 313 348 360 355 63
248 265 3 230 194 167 213 244 328 166 208 198 187 171 160 169 177 173 178 184 199 181 193 204 184 201 199 183 188 168 176 182 164 195 267 236 194 241 197 278 271 164 58 26 296 348 297 326 281
210 67 281 152 243 170 205 99 23 219 195 207 199 172 164 169 161 164 175 180 197 195 191 194 188 181 196 190 169 179 193 169 169 169 239 243 222 265 280 54 282 119 232 228 243 324 295 339 29
252 253 270 71 205 237 209 162 187 239 212 209 219 194 166 174 190 170 179 185 175 190 201 197 186 202 194 197 177 184 176 169 155 161 228 237 232 251 244 264 208 358 306 341 19 309 245 292 288
303 284 293 112 236 236 253 209 196 206 208 201 214 207 187 190 184 188 185 181 182 188 197 198 181 193 196 193 181 175 175 182 202 192 233 245 231 242 262 237 259 0 292 264 306 328 296 130 314
281 265 354 300 258 222 316 285 192 197 203 198 214 215 209 181 180 187 185 187 180 189 196 193 198 195 198 197 185 185 187 201 213 199 226 239 249 242 246 254 246 235 254 274 286 294 299 292 195
248 258 120 228 258 71 21 13 351 320 329 202 207 216 211 181 178 184 191 184 182 189 190 196 202 205 195 189 187 195 192 210 219 207 205 228 243 229 233 254 261 245 238 256 302 266 291 260 190
280 28 280 232 279 232 129 260 256 336 326 323 213 208 215 183 185 191 182 188 182 189 191 199 201 211 199 185 200 201 205 209 215 210 205 206 223 208 253 250 273 275 270 252 284 260 249 279 273
300 298 297 273 257 148 199 207 239 154 244 314 288 205 226 190 188 186 191 191 187 180 188 199 206 215 206 189 192 209 200 204 214 213 213 224 234 211 222 237 251 267 286 273 261 257 260 253 304
282 293 269 261 19 338 300 286 194 176 153 186 242 234 199 217 180 178 184 193 182 177 181 208 211 223 207 196 195 199 205 203 210 210 219 215 239 232 233 239 241 273 268 271 295 291 272 231 270
239 254 360 279 46 258 289 292 222 189 169 155 232 188 190 192 182 179 174 163 174 180 184 197 205 211 218 204 201 204 201 209 209 221 216 224 224 250 256 234 238 260 275 281 279 287 268 257 253
236 279 205 274 168 230 211 268 293 357 97 108 177 153 193 169 190 177 168 171 174 182 186 191 214 215 222 210 201 207 205 212 206 211 218 214 247 254 256 227 240 269 267 287 300 292 292 289 275
257 251 290 295 292 311 124 187 184 256 122 128 128 139 152 163 183 170 162 170 176 182 189 192 207 218 224 217 211 211 215 215 215 216 232 224 224 219 296 260 269 267 262 246 259 272 267 259 285
248 303 301 315 322 336 60 93 55 349 314 116 138 147 155 170 167 176 171 179 181 188 195 193 212 217 215 212 216 215 216 219 210 209 227 231 231 244 244 273 259 253 244 245 250 256 257 269 273
217 241 238 257 273 296 260 248 154 171 285 187 159 155 159 167 170 179 170 176 180 184 191 192 206 217 200 204 218 214 226 232 222 217 218 224 226 223 229 238 245 257 260 249 256 258 252 251 268
247 242 279 245 262 243 295 48 165 175 197 185 154 153 159 167 173 174 164 175 184 184 189 191 199 211 202 204 207 220 220 220 240 233 231 235 243 241 236 245 248 247 254 255 252 256 258 256 264
Height
1504 1501 1500 1503 1507 1498 1511 1509 1489 1486 1490 1484 1485 1486 1499 1505 1511 1522 1524 1527 1529 1532 1533 1536 1539 1541 1543 1545 1547 1548 1549 1550 1553 1554 1556 1557 1559 1560 1560 1560 1560 1560 1560 1562 1563 1564 1564 1565 1566
1502 1503 1506 1502 1507 1520 1524 1508 1497 1490 1491 1488 1489 1496 1497 1506 1510 1517 1523 1527 1529 1533 1535 1537 1540 1543 1544 1546 1548 1550 1551 1552 1554 1556 1557 1558 1559 1560 1560 1561 1561 1561 1561 1562 1564 1564 1564 1565 1566
1504 1506 1505 1499 1503 1511 1517 1514 1498 1486 1485 1488 1489 1495 1503 1510 1513 1519 1525 1529 1533 1537 1538 1540 1541 1543 1545 1547 1549 1551 1552 1554 1555 1556 1557 1558 1559 1560 1560 1561 1561 1561 1561 1562 1564 1565 1564 1564 1567
1506 1505 1501 1501 1500 1501 1508 1507 1495 1488 1489 1488 1492 1501 1508 1511 1514 1518 1525 1532 1535 1537 1540 1543 1544 1545 1546 1547 1549 1552 1553 1554 1556 1556 1557 1559 1560 1560 1560 1561 1562 1562 1561 1563 1565 1566 1564 1564 1570
1506 1506 1507 1502 1499 1500 1498 1497 1491 1494 1492 1489 1495 1511 1510 1513 1517 1522 1528 1533 1535 1536 1538 1544 1545 1546 1546 1548 1551 1552 1554 1555 1556 1557 1558 1559 1560 1560 1560 1562 1562 1562 1562 1563 1566 1567 1565 1564 1570
1504 1498 1511 1512 1505 1494 1494 1492 1492 1496 1500 1495 1499 1505 1510 1514 1518 1525 1530 1533 1532 1535 1539 1545 1546 1547 1548 1549 1552 1553 1554 1556 1557 1558 1559 1559 1560 1560 1561 1562 1563 1563 1563 1564 1566 1568 1566 1566 1569
1501 1498 1509 1508 1510 1501 1499 1494 1494 1502 1505 1505 1501 1508 1514 1515 1521 1526 1531 1532 1536 1539 1540 1545 1546 1548 1548 1550 1552 1554 1555 1556 1557 1558 1559 1560 1560 1561 1561 1563 1564 1564 1563 1563 1565 1567 1567 1567 1570
1501 1500 1518 1515 1507 1503 1497 1496 1499 1505 1516 1505 1503 1509 1511 1517 1522 1527 1532 1535 1537 1542 1543 1544 1546 1548 1549 1550 1553 1554 1555 1557 1558 1558 1559 1560 1561 1561 1562 1563 1564 1564 1563 1563 1564 1565 1567 1568 1571
1499 1512 1524 1521 1502 1502 1499 1499 1501 1506 1510 1511 1504 1504 1510 1516 1522 1527 1530 1535 1537 1542 1543 1545 1546 1548 1550 1552 1553 1554 1555 1556 1558 1558 1560 1560 1560 1562 1563 1564 1565 1565 1564 1565 1565 1565 1566 1565 1566
1497 1506 1512 1501 1495 1502 1501 1502 1506 1504 1504 1505 1506 1509 1514 1517 1519 1524 1529 1534 1537 1541 1543 1544 1546 1548 1551 1553 1554 1554 1556 1557 1558 1559 1560 1561 1562 1566 1566 1566 1565 1565 1566 1566 1567 1567 1566 1563 1557
1497 1503 1494 1497 1500 1500 1498 1503 1503 1499 1509 1510 1514 1510 1517 1520 1522 1525 1529 1532 1536 1540 1543 1544 1545 1548 1552 1552 1553 1555 1556 1557 1558 1559 1560 1562 1566 1568 1567 1567 1567 1567 1567 1567 1567 1567 1567 1564 1562
1500 1495 1492 1496 1500 1499 1501 1503 1504 1508 1516 1511 1516 1514 1515 1520 1523 1528 1530 1534 1536 1539 1541 1545 1547 1549 1550 1551 1553 1555 1557 1558 1558 1560 1562 1564 1567 1567 1565 1566 1566 1566 1566 1566 1566 1568 1567 1567 1565
1495 1494 1489 1495 1499 1500 1501 1501 1503 1510 1512 1510 1507 1511 1514 1519 1524 1528 1531 1533 1536 1539 1542 1545 1546 1548 1548 1551 1552 1554 1557 1558 1559 1562 1564 1565 1566 1567 1566 1566 1565 1565 1565 1565 1565 1566 1567 1567 1566
1492 1492 1487 1490 1494 1497 1498 1502 1506 1508 1505 1509 1510 1510 1513 1517 1520 1525 1529 1533 1534 1538 1541 1542 1545 1545 1548 1549 1551 1553 1555 1558 1560 1563 1565 1565 1565 1565 1566 1566 1565 1566 1566 1567 1569 1568 1568 1567 1565
1491 1491 1483 1490 1490 1494 1497 1504 1504 1508 1508 1504 1507 1508 1510 1515 1519 1522 1525 1530 1532 1535 1538 1541 1544 1545 1546 1548 1550 1553 1555 1556 1560 1564 1565 1565 1565 1566 1567 1570 1569 1566 1564 1565 1565 1569 1569 1570 1566
1489 1485 1501 1496 1486 1490 1496 1507 1501 1502 1504 1504 1504 1506 1509 1512 1516 1520 1524 1527 1530 1533 1536 1539 1540 1543 1546 1548 1549 1552 1554 1555 1560 1563 1562 1562 1564 1566 1572 1566 1566 1566 1566 1563 1565 1568 1568 1566 1566
1482 1504 1499 1489 1485 1487 1492 1509 1500 1501 1505 1504 1502 1502 1506 1511 1516 1518 1521 1524 1527 1531 1534 1538 1540 1542 1545 1547 1548 1551 1552 1555 1559 1560 1561 1561 1563 1567 1570 1564 1569 1564 1562 1561 1563 1568 1569 1568 1566
1495 1493 1481 1485 1484 1483 1486 1495 1501 1497 1499 1499 1497 1497 1502 1507 1511 1515 1518 1522 1524 1527 1531 1535 1539 1541 1544 1547 1548 1551 1552 1554 1558 1560 1561 1562 1564 1566 1571 1569 1568 1562 1560 1561 1562 1566 1570 1568 1566
1482 1482 1480 1477 1474 1480 1478 1478 1487 1490 1492 1494 1493 1492 1496 1499 1506 1511 1514 1519 1522 1526 1529 1533 1538 1540 1543 1545 1547 1549 1551 1553 1557 1560 1561 1563 1564 1563 1565 1566 1563 1563 1561 1562 1563 1566 1566 1560 1562
1479 1478 1480 1484 1474 1478 1479 1473 1478 1480 1480 1485 1487 1489 1490 1494 1502 1508 1511 1514 1518 1521 1526 1530 1535 1538 1541 1544 1547 1548 1550 1553 1556 1560 1561 1562 1563 1564 1564 1562 1562 1563 1563 1565 1567 1565 1561 1559 1555
1474 1473 1480 1492 1471 1484 1487 1497 1495 1491 1487 1478 1483 1487 1487 1491 1497 1503 1508 1512 1514 1518 1522 1526 1531 1535 1539 1543 1545 1548 1549 1551 1553 1557 1560 1561 1562 1563 1563 1562 1560 1560 1562 1564 1560 1563 1560 1551 1553
1476 1461 1465 1468 1472 1496 1492 1517 1502 1496 1492 1492 1478 1482 1483 1486 1492 1498 1503 1509 1512 1515 1520 1524 1528 1532 1537 1539 1544 1547 1548 1550 1552 1554 1558 1558 1558 1558 1559 1560 1560 1558 1560 1561 1561 1561 1558 1552 1550
1475 1463 1468 1466 1467 1477 1491 1506 1490 1492 1510 1492 1482 1475 1479 1480 1486 1492 1499 1505 1509 1515 1517 1521 1526 1530 1534 1538 1541 1544 1547 1549 1551 1553 1555 1555 1555 1554 1559 1560 1561 1560 1561 1560 1560 1559 1558 1554 1555
1467 1468 1466 1466 1492 1503 1486 1485 1484 1485 1485 1485 1470 1469 1472 1476 1481 1488 1494 1500 1508 1512 1517 1518 1522 1527 1532 1535 1539 1541 1544 1547 1550 1551 1552 1552 1553 1555 1559 1559 1560 1560 1559 1558 1558 1557 1555 1555 1555
1466 1471 1499 1502 1532 1545 1480 1495 1465 1450 1458 1455 1456 1458 1464 1471 1476 1485 1492 1497 1503 1510 1514 1517 1520 1524 1528 1532 1536 1538 1541 1545 1548 1549 1551 1554 1555 1555 1556 1556 1557 1555 1556 1554 1554 1555 1556 1554 1556
1464 1463 1495 1504 1518 1495 1468 1511 1468 1446 1448 1455 1457 1455 1460 1467 1474 1481 1488 1495 1500 1508 1512 1517 1517 1522 1526 1530 1533 1537 1539 1542 1544 1547 1551 1553 1555 1554 1553 1548 1552 1554 1553 1552 1553 1555 1557 1555 1556
1466 1468 1445 1459 1445 1452 1469 1471 1450 1448 1448 1450 1451 1456 1460 1467 1474 1481 1487 1494 1501 1506 1510 1515 1516 1519 1523 1526 1530 1533 1536 1538 1540 1543 1548 1551 1552 1554 1550 1547 1550 1550 1552 1551 1553 1554 1555 1555 1555
1458 1452 1470 1459 1484 1486 1460 1471 1478 1474 1463 1456 1454 1455 1462 1468 1473 1481 1486 1492 1498 1503 1508 1513 1515 1518 1521 1525 1527 1530 1532 1535 1537 1539 1543 1546 1549 1551 1551 1549 1547 1551 1552 1551 1552 1553 1553 1553 1554
1459 1462 1457 1455 1458 1475 1483 1475 1464 1478 1473 1457 1456 1457 1462 1468 1474 1480 1485 1491 1496 1501 1505 1511 1514 1516 1519 1523 1525 1528 1530 1533 1535 1536 1539 1542 1545 1547 1548 1549 1549 1549 1550 1551 1552 1551 1551 1548 1550
1443 1449 1446 1462 1464 1450 1451 1462 1445 1461 1453 1451 1453 1456 1461 1468 1474 1480 1484 1490 1495 1499 1503 1507 1511 1513 1515 1520 1524 1526 1529 1532 1532 1533 1536 1539 1541 1543 1545 1546 1546 1547 1548 1549 1549 1548 1548 1547 1548